Flag for Faroe Islands Weather past 2 weeks in Klaksvík, Faroe Islands, Faroe Islands

Now
46 °F

Light rain. Low clouds.


Feels Like: 40 °F
Forecast: 44 / 49 °F
Wind: 13 mph from South

Location: Thorshavn

Current Time: May 23, 2015 at 4:56:52 PM

Latest Report: May 23, 2015 at 4:00 PM


Visibility: 3 mi

Pressure: 29.81 "Hg

Humidity: 96%

Dew point: 44 °F

Location of KlaksvíkLocation

Historic Weather in Klaksvík — Graph

°F

Klaksvík temperature yesterday

Maximum temperature yesterday: 47 °F (at 4:00 PM)
Minimum temperature yesterday: 41 °F (at 6:00 AM)
Average temperature yesterday: 44 °F

Past Weeks' High & Low Weather Summary

 TemperatureHumidityPressure
High53 °F (May 19, 4:00 PM)100% (May 12, 7:00 AM)30.21 "Hg (May 12, 7:00 AM)
Low36 °F (May 10, 6:00 AM)53% (May 13, 1:00 PM)29.15 "Hg (May 12, 5:00 AM)
Average44 °F80%29.74 "Hg
* Reported May 8 3:00 PM — May 23 3:00 PM, Klaksvík, Weather by CustomWeather, © 2015

Note: Actual official high and low records may vary slightly from our data, if they occured in-between our weather recording intervals... More about our weather records

Advertising

Klaksvík weather history for previous 24 hours

 ConditionsComfort  
Time TempWeatherWind HumidityBarometerVisibility
3:00 PM
Sat, May 23
45 °FRain showers. Low clouds.13 mph95%29.87 "Hg3 mi
2:00 PM45 °FRain showers. Overcast.14 mph90%29.92 "Hg6 mi
1:00 PM47 °FRain showers. Overcast.13 mph71%29.96 "Hg11 mi
12:00 PM47 °FOvercast.12 mph77%30.00 "Hg14 mi
11:00 AM45 °FOvercast.12 mph84%30.04 "Hg13 mi
10:00 AM46 °FOvercast.8 mph72%30.07 "Hg22 mi
9:00 AM45 °FOvercast.9 mph75%30.09 "Hg16 mi
8:00 AM45 °FOvercast.7 mph74%30.11 "Hg17 mi
7:00 AM44 °FOvercast.5 mph76%30.14 "Hg19 mi
6:00 AM42 °FPassing clouds.10 mph80%30.15 "Hg19 mi
5:00 AM40 °FPassing clouds.3 mph82%30.16 "Hg12 mi
3:00 AM37 °FClear.6 mph86%30.19 "Hg12 mi
2:00 AM39 °FPassing clouds.6 mph86%30.21 "Hg11 mi
1:00 AM41 °FOvercast.2 mph81%30.20 "Hg12 mi
12:00 AM41 °FPassing clouds.9 mph81%30.19 "Hg14 mi
11:00 PM
Fri, May 22
42 °FPassing clouds.7 mph79%30.18 "Hg12 mi
10:00 PM42 °FSunny.9 mph79%30.16 "Hg12 mi
9:00 PM44 °FSunny.20 mph77%30.12 "Hg12 mi
8:00 PM44 °FOvercast.17 mph80%30.10 "Hg12 mi
7:00 PM46 °FOvercast.17 mph76%30.07 "Hg9 mi
6:00 PM47 °FOvercast.15 mph76%30.02 "Hg10 mi
5:00 PM47 °FPartly sunny.26 mph78%29.96 "Hg12 mi
4:00 PM47 °FOvercast.21 mph77%29.93 "Hg17 mi
Weather by CustomWeather, © 2015

See weather overviewHow to use our weather pages